EW9855 Weather Reports


Display with metric or nautical units.
time (UTC)temp
F
wind
direction
speed
MPH
gust
MPH
rain 1hr
in
rain 24hr
in
rain mn
in
humidity
%
barometer
mb
20191018170332 53 44 1.0 2.0 0.00 0.74 0.01 98 1019.5
20191018165828 54 44 0.0 2.0 0.00 0.80 0.01 98 1019.6
20191018165333 53 44 1.0 2.0 0.00 0.80 0.01 98 1019.5
20191018164836 53 44 1.0 2.0 0.00 0.80 0.01 98 1019.5
20191018164318 53 44 1.0 2.0 0.00 0.80 0.01 98 1019.5
20191018163822 53 44 0.0 2.0 0.00 0.80 0.01 98 1019.5
20191018163322 53 44 0.0 1.0 0.00 0.80 0.01 98 1019.5
20191018162825 52 44 0.0 0.0 0.00 0.80 0.01 98 1019.5
20191018162328 52 44 0.0 1.0 0.00 0.80 0.01 98 1019.4
20191018161834 52 44 0.0 2.0 0.00 0.80 0.01 98 1019.4
20191018161318 52 44 2.0 2.0 0.00 0.80 0.01 98 1019.3
20191018160822 52 44 1.0 2.0 0.00 0.80 0.01 98 1019.3
20191018160326 52 44 1.0 2.0 0.00 0.80 0.01 98 1019.1
20191018155825 52 44 1.0 3.0 0.00 1.27 0.01 98 1019.0
20191018155330 52 44 1.0 4.0 0.00 1.27 0.01 98 1018.9
20191018154833 52 44 2.0 3.0 0.00 1.27 0.01 98 1018.8
20191018154336 52 44 0.0 1.0 0.00 1.27 0.01 98 1018.8
20191018153820 52 44 0.0 1.0 0.00 1.27 0.01 98 1018.6
20191018153323 52 44 1.0 2.0 0.00 1.27 0.01 98 1018.6
20191018152828 52 44 0.0 2.0 0.00 1.27 0.01 98 1018.5
20191018152333 52 44 1.0 2.0 0.00 1.27 0.01 98 1018.4
20191018151816 52 44 1.0 2.0 0.00 1.27 0.01 98 1018.3
20191018151320 52 44 0.0 1.0 0.00 1.27 0.01 98 1018.4
20191018150826 52 44 0.0 2.0 0.00 1.27 0.01 98 1018.3
20191018150332 52 44 1.0 2.0 0.00 1.27 0.01 98 1018.3
20191018145830 52 44 1.0 2.0 0.00 1.55 0.01 98 1018.3
20191018145334 52 44 1.0 2.0 0.00 1.55 0.01 98 1018.1
20191018144817 51 44 0.0 0.0 0.00 1.55 0.01 98 1018.1
20191018144321 51 44 0.0 0.0 0.00 1.55 0.01 98 1018.2
20191018143824 51 44 0.0 2.0 0.00 1.55 0.01 98 1018.3
20191018143328 51 44 1.0 3.0 0.00 1.55 0.01 98 1018.3
20191018142835 52 44 2.0 3.0 0.00 1.55 0.01 98 1018.4
20191018142318 52 44 0.0 1.0 0.00 1.55 0.01 98 1018.3
20191018141822 52 44 0.0 0.0 0.00 1.55 0.01 98 1018.3
20191018141325 52 44 0.0 0.0 0.00 1.55 0.01 98 1018.3
20191018140831 52 44 0.0 0.0 0.00 1.55 0.01 98 1018.2
20191018140336 52 44 0.0 0.0 0.00 1.55 0.01 98 1018.2
20191018135835 52 44 0.0 0.0 0.00 1.66 0.01 98 1018.1
20191018135318 52 44 0.0 0.0 0.00 1.66 0.01 98 1018.0
20191018134823 52 44 0.0 2.0 0.00 1.66 0.01 98 1017.8
20191018134326 52 44 1.0 2.0 0.00 1.66 0.01 98 1017.8
20191018133830 52 44 0.0 1.0 0.00 1.66 0.01 98 1017.8
20191018133319 52 44 0.0 2.0 0.00 1.66 0.01 98 1017.8
20191018132822 52 44 0.0 2.0 0.00 1.66 0.01 98 1017.7
20191018132326 52 44 1.0 2.0 0.00 1.66 0.01 98 1017.7
20191018131831 52 44 0.0 2.0 0.00 1.66 0.01 98 1017.6
20191018131334 52 44 0.0 3.0 0.00 1.66 0.01 98 1017.6
20191018130817 52 44 2.0 4.0 0.00 1.66 0.01 98 1017.6
20191018130321 52 44 2.0 4.0 0.00 1.66 0.01 98 1017.4
20191018125820 52 95 2.0 3.0 0.00 1.66 0.01 98 1017.6
20191018125323 52 96 1.0 2.0 0.00 1.66 0.01 98 1017.5
20191018124827 52 124 0.0 2.0 0.00 1.66 0.01 98 1017.5
20191018124330 52 124 0.0 3.0 0.00 1.66 0.01 98 1017.6
20191018123817 52 123 1.0 3.0 0.00 1.66 0.01 98 1017.7
20191018123322 52 15 1.0 2.0 0.00 1.66 0.01 98 1017.7
20191018122825 52 15 1.0 1.0 0.00 1.66 0.01 98 1017.7
20191018122330 52 15 1.0 1.0 0.00 1.66 0.01 98 1017.7
20191018121833 53 15 0.0 2.0 0.00 1.66 0.01 98 1017.7
20191018121331 53 15 1.0 2.0 0.00 1.66 0.01 98 1017.7
20191018120834 53 15 0.0 2.0 0.00 1.66 0.01 98 1017.6
20191018120335 53 15 0.0 0.0 0.00 1.66 0.01 98 1017.7
20191018115837 53 15 0.0 0.0 0.00 1.66 0.01 98 1017.9
20191018115319 53 15 0.0 1.0 0.00 1.66 0.01 98 1017.9
20191018114819 53 15 0.0 1.0 0.00 1.66 0.01 98 1017.9
20191018114325 53 15 0.0 1.0 0.00 1.66 0.01 98 1017.8
20191018113829 53 15 0.0 1.0 0.00 1.66 0.01 98 1017.8
20191018113332 53 15 1.0 1.0 0.00 1.66 0.01 98 1017.8
20191018112835 53 15 1.0 1.0 0.00 1.66 0.01 98 1017.9
20191018112318 53 15 1.0 1.0 0.00 1.66 0.01 98 1017.8
20191018111822 53 15 0.0 0.0 0.00 1.66 0.01 98 1017.9
20191018111320 53 15 0.0 0.0 0.00 1.66 0.01 98 1017.7
20191018110822 53 15 0.0 1.0 0.01 1.66 0.01 98 1017.7
20191018110326 53 15 0.0 2.0 0.01 1.66 0.01 98 1017.6
20191018105830 53 15 1.0 3.0 0.01 1.66 0.01 98 1017.5
20191018105334 53 15 1.0 3.0 0.01 1.66 0.01 98 1017.5
20191018104834 53 15 1.0 3.0 0.01 1.66 0.01 98 1017.4
20191018104320 53 15 1.0 2.0 0.01 1.66 0.01 98 1017.5
20191018103820 53 15 1.0 2.0 0.01 1.66 0.01 98 1017.6
20191018103321 53 15 1.0 2.0 0.01 1.66 0.01 98 1017.6
20191018102822 53 15 0.0 1.0 0.01 1.66 0.01 98 1017.5
20191018102326 53 15 0.0 0.0 0.01 1.66 0.01 98 1017.5
20191018101830 53 15 0.0 1.0 0.01 1.66 0.01 98 1017.4
20191018101329 53 15 0.0 1.0 0.01 1.66 0.01 98 1017.4
20191018100833 53 15 0.0 1.0 0.00 1.65 0.00 98 1017.3
20191018100336 53 15 0.0 0.0 0.00 1.65 0.00 98 1017.3
20191018095817 53 15 0.0 1.0 0.00 1.65 0.00 98 1017.3
20191018095321 53 15 0.0 2.0 0.00 1.65 0.00 98 1017.2
20191018094835 53 15 1.0 2.0 0.00 1.65 0.00 98 1017.1
20191018094322 53 15 0.0 2.0 0.00 1.65 0.00 98 1017.2
20191018093827 53 15 1.0 2.0 0.00 1.65 0.00 98 1017.1
20191018093331 53 15 0.0 0.0 0.00 1.65 0.00 98 1017.1
20191018092834 53 15 0.0 1.0 0.00 1.65 0.00 98 1017.1
20191018092317 53 15 0.0 2.0 0.00 1.65 0.00 98 1017.1
20191018091822 53 15 1.0 2.0 0.00 1.65 0.00 98 1017.1
20191018091325 53 15 0.0 2.0 0.00 1.65 0.00 98 1017.1
20191018090827 53 15 0.0 2.0 0.00 1.65 0.00 98 1017.0
20191018090331 53 15 0.0 2.0 0.00 1.65 0.00 98 1017.0
20191018085836 53 15 1.0 2.0 0.00 1.67 0.00 98 1017.0
20191018085318 53 15 0.0 1.0 0.00 1.67 0.00 98 1017.0
20191018084828 53 15 0.0 2.0 0.00 1.67 0.00 98 1016.8
20191018084333 53 15 0.0 2.0 0.00 1.67 0.00 98 1016.8
20191018083817 53 15 2.0 2.0 0.00 1.67 0.00 98 1016.8
20191018083319 53 15 1.0 3.0 0.00 1.67 0.00 98 1016.9
20191018082822 53 15 1.0 3.0 0.00 1.67 0.00 98 1017.0
20191018082324 53 11 2.0 3.0 0.00 1.67 0.00 98 1017.0
20191018081827 53 11 2.0 2.0 0.00 1.67 0.00 98 1017.0
20191018081330 53 11 1.0 2.0 0.00 1.67 0.00 98 1016.9
20191018080833 53 11 0.0 2.0 0.00 1.67 0.00 98 1016.9
20191018080338 53 11 1.0 3.0 0.00 1.67 0.00 98 1017.0
20191018075821 53 11 1.0 4.0 0.00 1.70 0.00 98 1016.9
20191018075324 53 11 1.0 4.0 0.00 1.70 0.00 98 1016.8
20191018074832 53 348 2.0 3.0 0.00 1.70 0.00 98 1016.8
20191018074335 53 348 1.0 2.0 0.00 1.70 0.00 98 1016.8
20191018073818 53 348 0.0 2.0 0.00 1.70 0.00 98 1016.7
20191018073342 53 348 1.0 2.0 0.00 1.70 0.00 98 1016.8
20191018072824 53 348 0.0 1.0 0.00 1.70 0.00 98 1016.8
20191018072326 53 348 0.0 1.0 0.00 1.70 0.00 98 1016.8
20191018071829 53 348 0.0 2.0 0.00 1.70 0.00 98 1016.7
20191018071333 53 348 1.0 2.0 0.01 1.70 0.00 98 1016.7
20191018070816 53 348 2.0 2.0 0.02 1.70 0.00 98 1016.6
20191018070321 53 348 0.0 3.0 0.02 1.70 0.00 98 1016.6
20191018065824 53 348 2.0 3.0 0.03 1.70 1.70 98 1016.7
20191018065328 53 348 1.0 2.0 0.04 1.70 1.70 98 1016.7
20191018064817 53 348 0.0 3.0 0.05 1.70 1.70 98 1016.6
20191018064322 53 348 0.0 3.0 0.05 1.70 1.70 98 1016.7
20191018063827 53 348 1.0 2.0 0.06 1.70 1.70 98 1016.9
20191018063331 53 348 0.0 2.0 0.07 1.70 1.70 98 1016.7
20191018062834 53 348 0.0 1.0 0.08 1.70 1.70 98 1016.7
20191018062337 53 348 0.0 1.0 0.09 1.70 1.70 98 1016.7
20191018061822 53 348 1.0 2.0 0.09 1.70 1.70 98 1016.8
20191018061325 53 348 0.0 2.0 0.09 1.69 1.69 98 1016.9
20191018060830 53 348 0.0 1.0 0.08 1.68 1.68 98 1017.0
20191018060334 53 348 1.0 1.0 0.10 1.68 1.68 97 1017.0
20191018055821 53 348 1.0 3.0 0.13 1.67 1.67 97 1016.9
20191018055324 53 348 1.0 3.0 0.14 1.66 1.66 97 1016.9
20191018054828 53 183 1.0 2.0 0.17 1.65 1.65 97 1016.9
20191018054330 53 183 0.0 2.0 0.23 1.64 1.64 97 1016.9
20191018053835 53 183 0.0 2.0 0.25 1.64 1.64 97 1016.8
20191018053319 53 183 0.0 2.0 0.26 1.63 1.63 97 1016.7
20191018052822 53 186 0.0 2.0 0.28 1.62 1.62 97 1016.7
20191018052326 53 140 1.0 2.0 0.29 1.61 1.61 97 1016.7
20191018051831 53 140 0.0 2.0 0.30 1.60 1.60 97 1016.5
20191018051335 53 140 1.0 2.0 0.31 1.60 1.60 97 1016.4
20191018050819 53 140 1.0 2.0 0.32 1.60 1.60 97 1016.5
20191018050327 53 140 0.0 3.0 0.30 1.58 1.58 97 1016.4
20191018045826 53 140 2.0 3.0 0.26 1.55 1.54 97 1016.3
20191018045330 53 140 2.0 3.0 0.25 1.53 1.52 97 1016.3
20191018044833 53 30 0.0 6.0 0.21 1.49 1.48 97 1016.1
20191018044337 53 30 1.0 6.0 0.17 1.42 1.41 97 1015.9
20191018043818 53 30 2.0 4.0 0.18 1.40 1.39 97 1015.7
20191018043321 53 25 2.0 3.0 0.19 1.37 1.36 97 1015.7
20191018042826 53 25 1.0 4.0 0.21 1.35 1.34 97 1015.6
20191018042329 53 37 1.0 4.0 0.22 1.33 1.32 97 1015.8
20191018041834 53 160 1.0 2.0 0.22 1.31 1.30 97 1015.9
20191018041336 53 160 0.0 3.0 0.23 1.30 1.29 97 1015.9
20191018040822 53 160 1.0 3.0 0.24 1.29 1.28 97 1015.9
20191018040326 53 170 1.0 3.0 0.24 1.29 1.28 96 1015.9
20191018035826 53 348 0.0 5.0 0.24 1.37 1.28 96 1016.1
20191018035329 53 229 4.0 5.0 0.23 1.36 1.27 96 1016.2
20191018034833 53 277 2.0 4.0 0.24 1.36 1.27 96 1016.0
20191018034336 53 142 2.0 4.0 0.21 1.33 1.24 96 1016.0
20191018033818 54 175 2.0 3.0 0.17 1.29 1.20 96 1016.2
20191018033322 54 175 1.0 3.0 0.14 1.26 1.17 96 1016.1
20191018032825 54 185 1.0 2.0 0.09 1.21 1.12 96 1016.1
20191018032329 54 84 1.0 2.0 0.07 1.19 1.10 96 1016.0
20191018031831 54 84 1.0 3.0 0.05 1.17 1.08 96 1015.9
20191018031333 54 83 1.0 3.0 0.02 1.14 1.05 96 1015.6
20191018030818 54 106 1.0 2.0 0.01 1.13 1.04 95 1015.6
20191018030321 54 106 1.0 2.0 0.01 1.13 1.04 95 1015.4
20191018025819 54 107 0.0 2.0 0.01 1.25 1.04 95 1015.3
20191018025321 54 107 0.0 2.0 0.01 1.25 1.04 95 1015.3
20191018024825 54 107 0.0 2.0 0.00 1.24 1.03 95 1015.4
20191018024329 54 107 1.0 2.0 0.00 1.24 1.03 95 1015.5
20191018023832 54 107 1.0 2.0 0.00 1.24 1.03 95 1015.4
20191018023316 54 110 1.0 3.0 0.00 1.24 1.03 95 1015.4
20191018022820 55 112 1.0 3.0 0.00 1.24 1.03 95 1015.6
20191018022325 54 355 2.0 3.0 0.00 1.24 1.03 95 1015.4
20191018021828 54 215 1.0 3.0 0.00 1.24 1.03 95 1015.4
20191018021335 54 292 2.0 3.0 0.00 1.24 1.03 95 1015.3
20191018020819 55 254 2.0 3.0 0.00 1.24 1.03 95 1015.4
20191018020322 54 260 2.0 4.0 0.00 1.24 1.03 95 1015.4
20191018015819 55 140 1.0 4.0 0.00 1.61 1.03 96 1015.4
20191018015322 55 229 1.0 2.0 0.00 1.61 1.03 96 1015.4
20191018014824 55 229 1.0 2.0 0.00 1.61 1.03 95 1015.5
20191018014327 55 229 0.0 2.0 0.00 1.61 1.03 95 1015.4
20191018013832 55 229 0.0 3.0 0.00 1.61 1.03 95 1015.4
20191018013335 55 229 0.0 3.0 0.00 1.61 1.03 95 1015.6
20191018012818 55 229 2.0 5.0 0.00 1.61 1.03 95 1015.6
20191018012320 55 236 2.0 5.0 0.00 1.61 1.03 94 1015.6
20191018011829 56 215 1.0 3.0 0.00 1.61 1.03 94 1015.6
20191018011333 56 205 2.0 4.0 0.00 1.61 1.03 94 1015.5
20191018010835 56 205 2.0 4.0 0.00 1.61 1.03 94 1015.5
20191018010317 56 235 2.0 4.0 0.00 1.61 1.03 94 1015.5
20191018005816 56 234 1.0 2.0 0.00 1.77 1.03 94 1015.5
20191018005320 56 234 1.0 2.0 0.00 1.77 1.03 94 1015.5
20191018004823 56 234 1.0 2.0 0.00 1.77 1.03 93 1015.5
20191018004326 56 234 1.0 3.0 0.00 1.77 1.03 94 1015.5
20191018003830 56 234 1.0 3.0 0.00 1.77 1.03 93 1015.7
20191018003334 56 227 1.0 3.0 0.00 1.77 1.03 93 1015.8
20191018002817 57 227 2.0 5.0 0.00 1.77 1.03 93 1015.8
20191018002320 57 227 3.0 5.0 0.00 1.77 1.03 92 1015.8
20191018001827 57 232 2.0 5.0 0.00 1.77 1.03 92 1015.8
20191018001329 57 187 0.0 4.0 0.00 1.77 1.03 91 1015.8
20191018000833 57 187 2.0 7.0 0.00 1.77 1.03 91 1015.8
20191018000318 57 191 2.0 7.0 0.00 1.77 1.03 92 1015.9
20191017235837 57 229 3.0 8.0 0.00 1.77 1.03 92 1016.0
20191017235320 57 225 4.0 8.0 0.00 1.77 1.03 92 1016.1
20191017234824 57 196 0.0 3.0 0.00 1.77 1.03 92 1016.1
20191017234328 57 196 2.0 5.0 0.00 1.77 1.03 91 1016.1
20191017233832 57 211 2.0 6.0 0.00 1.77 1.03 91 1016.2
20191017233336 58 202 3.0 8.0 0.00 1.77 1.03 91 1016.3
20191017232821 58 237 3.0 8.0 0.00 1.77 1.03 91 1016.3
20191017232330 58 246 3.0 8.0 0.00 1.77 1.03 90 1016.3
20191017231832 58 214 3.0 9.0 0.00 1.77 1.03 90 1016.2
20191017231317 58 159 4.0 9.0 0.00 1.77 1.03 91 1016.2
20191017230821 58 229 1.0 5.0 0.00 1.77 1.03 92 1016.2
20191017230325 58 265 3.0 9.0 0.02 1.77 1.03 91 1016.3
20191017225823 58 200 3.0 9.0 0.03 1.94 1.03 90 1016.3
20191017225327 58 236 3.0 5.0 0.03 1.94 1.03 91 1016.3
20191017224832 58 206 2.0 5.0 0.03 1.94 1.03 91 1016.3
20191017224336 58 283 2.0 6.0 0.03 1.94 1.03 91 1016.3
20191017223820 58 240 3.0 6.0 0.03 1.94 1.03 90 1016.2
20191017223324 58 254 2.0 6.0 0.03 1.94 1.03 91 1016.2
20191017222831 59 185 3.0 8.0 0.03 1.94 1.03 88 1016.3
20191017222335 59 163 4.0 14.0 0.03 1.94 1.03 89 1016.2
20191017221819 59 267 5.0 14.0 0.03 1.94 1.03 88 1016.2
20191017221323 60 202 3.0 8.0 0.03 1.94 1.03 87 1016.2
20191017220826 60 174 3.0 12.0 0.03 1.94 1.03 89 1016.2
20191017220330 59 185 4.0 12.0 0.01 1.92 1.01 90 1016.2
20191017215827 58 244 4.0 11.0 0.00 2.47 1.00 90 1016.2
20191017215331 58 206 5.0 9.0 0.00 2.47 1.00 90 1016.2
20191017214835 58 290 4.0 8.0 0.00 2.47 1.00 92 1016.3
20191017214319 59 204 4.0 9.0 0.00 2.47 1.00 91 1016.3
20191017213822 59 229 2.0 12.0 0.00 2.47 1.00 93 1016.3
20191017213330 58 235 3.0 9.0 0.00 2.47 1.00 91 1016.4
20191017212834 58 179 2.0 9.0 0.00 2.47 1.00 93 1016.4
20191017212317 58 228 4.0 9.0 0.00 2.47 1.00 93 1016.3
20191017211821 57 253 3.0 9.0 0.00 2.47 1.00 94 1016.4
20191017211326 57 134 2.0 4.0 0.00 2.47 1.00 94 1016.3
20191017210831 57 229 3.0 6.0 0.00 2.47 1.00 94 1016.3
20191017210335 56 243 1.0 11.0 0.00 2.47 1.00 95 1016.3
20191017205831 56 221 4.0 11.0 0.00 2.88 1.00 95 1016.3
20191017205335 56 226 5.0 12.0 0.00 2.88 1.00 94 1016.3
20191017204837 56 241 3.0 8.0 0.00 2.88 1.00 95 1016.3
20191017204320 56 209 5.0 8.0 0.00 2.88 1.00 95 1016.3
20191017203828 56 217 2.0 7.0 0.00 2.88 1.00 95 1016.3
20191017203332 56 265 3.0 7.0 0.00 2.88 1.00 95 1016.3
20191017202835 56 242 3.0 11.0 0.00 2.88 1.00 95 1016.2
20191017202319 56 200 3.0 10.0 0.00 2.88 1.00 95 1016.2
20191017201822 56 227 4.0 10.0 0.00 2.88 1.00 95 1016.1
20191017201325 57 250 4.0 10.0 0.00 2.88 1.00 96 1016.2
20191017200831 57 225 3.0 11.0 0.02 2.88 1.00 97 1016.1
20191017200335 56 235 3.0 9.0 0.02 2.88 1.00 96 1016.2
20191017195833 56 242 3.0 9.0 0.02 3.33 1.00 96 1016.2
20191017195317 55 221 3.0 13.0 0.02 3.33 1.00 96 1016.2
20191017194822 55 189 4.0 13.0 0.02 3.33 1.00 96 1016.2
20191017194330 56 215 3.0 11.0 0.02 3.33 1.00 97 1016.2
20191017193834 56 173 5.0 11.0 0.02 3.33 1.00 96 1016.1
20191017193318 56 220 4.0 9.0 0.02 3.33 1.00 97 1016.1
20191017192820 55 208 2.0 7.0 0.02 3.33 1.00 96 1016.0
20191017192323 55 256 5.0 8.0 0.02 3.33 1.00 96 1016.0
20191017191826 55 229 2.0 5.0 0.02 3.33 1.00 95 1016.0
20191017191329 56 229 1.0 6.0 0.02 3.33 1.00 94 1016.0
20191017190832 57 186 2.0 7.0 0.00 3.31 0.98 95 1016.0
20191017190336 57 244 4.0 10.0 0.00 3.31 0.98 95 1015.8
20191017185834 57 229 4.0 10.0 0.00 3.63 0.98 96 1015.8
20191017185317 57 251 3.0 6.0 0.00 3.63 0.98 97 1015.7
20191017184824 56 265 3.0 7.0 0.00 3.63 0.98 97 1015.8
20191017184327 56 185 2.0 7.0 0.00 3.63 0.98 97 1015.7
20191017183830 56 126 3.0 10.0 0.00 3.63 0.98 97 1015.8
20191017183335 55 205 5.0 10.0 0.00 3.63 0.98 97 1015.8
20191017182818 55 199 3.0 11.0 0.00 3.63 0.98 97 1015.8
20191017182321 55 238 2.0 11.0 0.00 3.63 0.98 97 1015.8
20191017181824 56 200 3.0 5.0 0.01 3.63 0.98 97 1015.8
20191017181327 55 174 2.0 7.0 0.01 3.63 0.98 97 1015.7
20191017180830 55 213 2.0 7.0 0.01 3.63 0.98 97 1015.5
20191017180334 55 181 2.0 4.0 0.01 3.63 0.98 97 1015.4
20191017175828 55 138 1.0 3.0 0.01 3.66 0.98 97 1015.4
20191017175324 55 44 1.0 1.0 0.01 3.66 0.98 98 1015.4
20191017174832 55 44 0.0 1.0 0.01 3.66 0.98 97 1015.4
20191017174336 54 44 0.0 2.0 0.01 3.66 0.98 97 1015.3
20191017173821 55 44 1.0 3.0 0.01 3.66 0.98 97 1015.3
20191017173324 55 44 1.0 3.0 0.01 3.66 0.98 98 1015.2
20191017172829 55 44 0.0 2.0 0.02 3.66 0.98 98 1015.2
20191017172334 55 44 1.0 2.0 0.03 3.66 0.98 98 1015.1
20191017171817 54 44 0.0 2.0 0.03 3.65 0.97 98 1015.1
20191017171320 54 44 1.0 2.0 0.03 3.65 0.97 98 1015.0
20191017170823 53 44 0.0 2.0 0.03 3.65 0.97 98 1015.0